• In Uzbekistan
  • List of Countries
  • For 7 days
  • Water Temperature
  • Satellite Maps
  • Weather Map
  • Weather Widgets
  • user-avatar
    Login

    Hourly Weather Vanadzor

    Today, 24 February, Friday

    Time Temperature Precipitation Wind Pressure Humidity
    00:00 -7°C° 0 mm 2 mps 633 mmHg 94%
    01:00 -7°C° 0 mm 2 mps 633 mmHg 94%
    02:00 -7°C° 0 mm 2 mps 633 mmHg 94%
    03:00 -6°C° 0 mm 2 mps 633 mmHg 94%
    04:00 -7°C° 0 mm 2 mps 633 mmHg 94%
    05:00 -8°C° 0 mm 2 mps 633 mmHg 94%
    06:00 -8°C° 0 mm 2 mps 633 mmHg 94%
    07:00 -6°C° 0 mm 2 mps 634 mmHg 93%
    08:00 -4°C° 0 mm 2 mps 635 mmHg 92%
    09:00 -2°C° 0 mm 2 mps 635 mmHg 90%
    10:00 -1°C° 0 mm 2 mps 635 mmHg 89%
    11:00 +1°C° 0 mm 2 mps 636 mmHg 88%
    12:00 +2°C° 0 mm 2 mps 636 mmHg 87%
    13:00 +3°C° 0 mm 2 mps 636 mmHg 87%
    14:00 +3°C° 0 mm 2 mps 636 mmHg 87%
    15:00 +3°C° 0 mm 2 mps 636 mmHg 87%
    16:00 +1°C° 0 mm 2 mps 636 mmHg 90%
    17:00 -2°C° 0 mm 2 mps 635 mmHg 92%
    18:00 -5°C° 0 mm 2 mps 635 mmHg 95%
    19:00 -5°C° 0 mm 2 mps 635 mmHg 94%
    20:00 -6°C° 0 mm 2 mps 635 mmHg 94%
    21:00 -7°C° 0 mm 2 mps 635 mmHg 93%
    22:00 -7°C° 0 mm 2 mps 635 mmHg 93%
    23:00 -7°C° 0 mm 2 mps 635 mmHg 93%

    Tomorrow, 25 February, Saturday

    Time Temperature Precipitation Wind Pressure Humidity
    00:00 -8°C° 0 mm 2 mps 635 mmHg 93%
    01:00 -8°C° 0 mm 2 mps 635 mmHg 93%
    02:00 -8°C° 0 mm 2 mps 636 mmHg 93%
    03:00 -8°C° 0 mm 2 mps 636 mmHg 93%
    04:00 -8°C° 0 mm 2 mps 636 mmHg 93%
    05:00 -9°C° 0 mm 2 mps 636 mmHg 93%
    06:00 -9°C° 0 mm 2 mps 635 mmHg 92%
    07:00 -6°C° 0 mm 2 mps 636 mmHg 90%
    08:00 -3°C° 0 mm 2 mps 637 mmHg 88%
    09:00 -1°C° 0 mm 2 mps 638 mmHg 86%
    10:00 +2°C° 0 mm 1 mps 638 mmHg 85%
    11:00 +4°C° 0 mm 1 mps 638 mmHg 84%
    12:00 +5°C° 0 mm 1 mps 638 mmHg 83%
    13:00 +5°C° 0 mm 1 mps 637 mmHg 84%
    14:00 +5°C° 0 mm 1 mps 637 mmHg 84%
    15:00 +5°C° 0 mm 1 mps 637 mmHg 85%
    16:00 +2°C° 0 mm 1 mps 636 mmHg 88%
    17:00 -1°C° 0 mm 1 mps 635 mmHg 92%
    18:00 -4°C° 0 mm 1 mps 634 mmHg 95%
    19:00 -7°C° 0 mm 2 mps 634 mmHg 94%
    20:00 -7°C° 0 mm 2 mps 634 mmHg 92%
    21:00 -7°C° 0 mm 2 mps 634 mmHg 91%
    22:00 -7°C° 0 mm 2 mps 634 mmHg 91%
    23:00 -7°C° 0 mm 2 mps 634 mmHg 90%

    Day after tomorrow, 26 February, Sunday

    Time Temperature Precipitation Wind Pressure Humidity
    00:00 -7°C° 0 mm 2 mps 634 mmHg 90%
    01:00 -7°C° 0 mm 2 mps 634 mmHg 90%
    02:00 -7°C° 0 mm 2 mps 634 mmHg 90%
    03:00 -7°C° 0 mm 2 mps 634 mmHg 90%
    04:00 -7°C° 0 mm 2 mps 634 mmHg 90%
    05:00 -7°C° 0 mm 2 mps 633 mmHg 90%
    06:00 -7°C° 0 mm 2 mps 633 mmHg 89%
    07:00 -5°C° 0 mm 2 mps 634 mmHg 87%
    08:00 -2°C° 0 mm 2 mps 635 mmHg 85%
    09:00 +1°C° 0 mm 2 mps 635 mmHg 83%
    10:00 +2°C° 0 mm 2 mps 635 mmHg 82%
    11:00 +3°C° 0 mm 2 mps 635 mmHg 82%
    12:00 +4°C° 0 mm 2 mps 635 mmHg 81%
    13:00 +4°C° 0 mm 2 mps 635 mmHg 81%
    14:00 +5°C° 0 mm 2 mps 634 mmHg 82%
    15:00 +5°C° 0 mm 2 mps 634 mmHg 83%
    16:00 +3°C° 0 mm 1 mps 634 mmHg 87%
    17:00 +1°C° 0 mm 1 mps 633 mmHg 91%
    18:00 -2°C° 0 mm 1 mps 633 mmHg 95%
    19:00 -2°C° 0 mm 1 mps 633 mmHg 94%
    20:00 -3°C° 0 mm 1 mps 633 mmHg 94%
    21:00 -3°C° 0 mm 1 mps 633 mmHg 93%
    22:00 -4°C° 0 mm 1 mps 633 mmHg 93%
    23:00 -4°C° 0 mm 1 mps 633 mmHg 92%

    27 February, Monday

    Time Temperature Precipitation Wind Pressure Humidity
    00:00 -4°C° 0 mm 1 mps 633 mmHg 92%
    01:00 -6°C° 0 mm 1 mps 633 mmHg 92%
    02:00 -6°C° 0 mm 1 mps 633 mmHg 93%
    03:00 -6°C° 0 mm 1 mps 633 mmHg 93%
    04:00 -7°C° 0 mm 0 mps 633 mmHg 94%
    05:00 -8°C° 0 mm 0 mps 633 mmHg 95%
    06:00 -9°C° 0 mm 0 mps 633 mmHg 96%
    07:00 -6°C° 0 mm 0 mps 635 mmHg 94%
    08:00 -2°C° 0 mm 1 mps 636 mmHg 93%
    09:00 +1°C° 0 mm 1 mps 638 mmHg 91%
    10:00 +2°C° 0 mm 1 mps 637 mmHg 90%
    11:00 +3°C° 0 mm 1 mps 637 mmHg 89%
    12:00 +4°C° 0 mm 1 mps 637 mmHg 88%
    13:00 +4°C° 0 mm 1 mps 637 mmHg 88%
    14:00 +4°C° 0 mm 1 mps 636 mmHg 89%
    15:00 +4°C° 0 mm 1 mps 636 mmHg 89%
    16:00 +3°C° 0 mm 1 mps 636 mmHg 92%
    17:00 +1°C° 0 mm 1 mps 635 mmHg 95%
    18:00 0°C° 0 mm 1 mps 635 mmHg 98%
    19:00 0°C° 0 mm 1 mps 635 mmHg 98%
    20:00 -1°C° 0 mm 1 mps 635 mmHg 97%
    21:00 -2°C° 0 mm 1 mps 635 mmHg 97%
    22:00 -2°C° 0 mm 1 mps 635 mmHg 96%
    23:00 -3°C° 0 mm 1 mps 635 mmHg 95%

    28 February, Tuesday

    Time Temperature Precipitation Wind Pressure Humidity
    00:00 -3°C° 0 mm 1 mps 635 mmHg 94%
    01:00 -3°C° 0 mm 1 mps 634 mmHg 93%
    02:00 -3°C° 0 mm 1 mps 634 mmHg 92%
    03:00 -3°C° 0 mm 1 mps 634 mmHg 92%
    04:00 -3°C° 0 mm 1 mps 634 mmHg 92%
    05:00 -3°C° 0 mm 1 mps 634 mmHg 91%
    06:00 -3°C° 0 mm 1 mps 634 mmHg 91%
    07:00 -1°C° 0 mm 1 mps 635 mmHg 88%
    08:00 +1°C° 0 mm 1 mps 636 mmHg 85%
    09:00 +3°C° 0 mm 1 mps 637 mmHg 82%
    10:00 +4°C° 0 mm 1 mps 637 mmHg 81%
    11:00 +5°C° 0 mm 1 mps 637 mmHg 80%
    12:00 +6°C° 0 mm 1 mps 637 mmHg 78%
    13:00 +6°C° 0 mm 1 mps 637 mmHg 79%
    14:00 +6°C° 0 mm 1 mps 636 mmHg 80%
    15:00 +6°C° 0 mm 1 mps 636 mmHg 81%
    16:00 +4°C° 0 mm 1 mps 635 mmHg 86%
    17:00 +2°C° 0 mm 1 mps 635 mmHg 91%
    18:00 0°C° 0 mm 1 mps 634 mmHg 96%
    19:00 -1°C° 0 mm 1 mps 634 mmHg 95%
    20:00 -1°C° 0 mm 1 mps 635 mmHg 94%
    21:00 -1°C° 0 mm 1 mps 635 mmHg 94%
    22:00 -1°C° 0 mm 1 mps 635 mmHg 93%
    23:00 -1°C° 0 mm 1 mps 635 mmHg 92%

    1 March, Wednesday

    Time Temperature Precipitation Wind Pressure Humidity
    00:00 -2°C° 0 mm 1 mps 635 mmHg 92%
    01:00 -2°C° 0 mm 1 mps 635 mmHg 92%
    02:00 -2°C° 0 mm 1 mps 635 mmHg 92%
    03:00 -2°C° 0 mm 1 mps 635 mmHg 92%
    04:00 -2°C° 0 mm 1 mps 635 mmHg 92%
    05:00 -2°C° 0 mm 1 mps 635 mmHg 92%
    06:00 -2°C° 0 mm 1 mps 635 mmHg 93%
    07:00 0°C° 0 mm 1 mps 636 mmHg 89%
    08:00 +2°C° 0 mm 1 mps 636 mmHg 85%
    09:00 +4°C° 0 mm 1 mps 637 mmHg 82%
    10:00 +5°C° 0 mm 1 mps 637 mmHg 80%
    11:00 +6°C° 0 mm 1 mps 637 mmHg 79%
    12:00 +7°C° 0 mm 1 mps 636 mmHg 77%
    13:00 +7°C° 0 mm 1 mps 636 mmHg 78%
    14:00 +7°C° 0 mm 1 mps 636 mmHg 79%
    15:00 +7°C° 0 mm 1 mps 635 mmHg 80%
    16:00 +5°C° 0 mm 1 mps 635 mmHg 85%
    17:00 +2°C° 0 mm 1 mps 634 mmHg 90%
    18:00 0°C° 0 mm 1 mps 633 mmHg 96%
    19:00 0°C° 0 mm 1 mps 633 mmHg 95%
    20:00 -1°C° 0 mm 1 mps 633 mmHg 93%
    21:00 -1°C° 0 mm 1 mps 633 mmHg 92%
    22:00 -2°C° 0 mm 1 mps 633 mmHg 91%
    23:00 -2°C° 0 mm 1 mps 633 mmHg 89%
    Show more